Time,TemperatureF,DewpointF,PressureIn,WindDirection,WindDirectionDegrees,WindSpeedMPH,WindSpeedGustMPH,Humidity,HourlyPrecipIn,Conditions,Clouds,dailyrainin,SoftwareType,DateUTC
2013-06-13 00:02:00,79.3,57.9,29.84,SW,233,0.0,2.3,48,0.00,CLR,,0.00,WeatherDisplay:10.37,2013-06-13 05:02:00,
2013-06-13 00:07:00,79.2,57.8,29.84,SW,221,0.0,2.3,48,0.00,CLR,,0.00,WeatherDisplay:10.37,2013-06-13 05:07:00,
2013-06-13 00:12:00,79.2,57.8,29.84,West,277,0.0,0.0,48,0.00,CLR,,0.00,WeatherDisplay:10.37,2013-06-13 05:12:00,
2013-06-13 00:17:00,79.2,58.4,29.84,SW,221,2.2,4.6,49,0.00,CLR,,0.00,WeatherDisplay:10.37,2013-06-13 05:17:00,
2013-06-13 00:22:00,79.0,58.2,29.84,SW,233,0.0,2.3,49,0.00,CLR,,0.00,WeatherDisplay:10.37,2013-06-13 05:22:00,
2013-06-13 00:27:00,79.0,58.2,29.84,WSW,247,0.0,0.0,49,0.00,CLR,,0.00,WeatherDisplay:10.37,2013-06-13 05:27:00,
2013-06-13 00:32:00,79.0,58.2,29.84,SW,233,0.0,0.0,49,0.00,CLR,,0.00,WeatherDisplay:10.37,2013-06-13 05:32:00,
2013-06-13 00:37:00,78.8,58.0,29.84,SSW,212,0.0,3.6,49,0.00,CLR,,0.00,WeatherDisplay:10.37,2013-06-13 05:37:00,
2013-06-13 00:42:00,78.8,58.0,29.84,SW,231,0.0,0.0,49,0.00,CLR,,0.00,WeatherDisplay:10.37,2013-06-13 05:42:00,
2013-06-13 00:47:00,78.8,58.0,29.84,SSW,206,2.2,3.5,49,0.00,CLR,,0.00,WeatherDisplay:10.37,2013-06-13 05:47:00,
2013-06-13 00:52:00,78.6,58.4,29.84,South,184,0.0,0.0,50,0.00,CLR,,0.00,WeatherDisplay:10.37,2013-06-13 05:52:00,
2013-06-13 00:57:00,78.6,58.4,29.84,South,183,0.0,0.0,50,0.00,CLR,,0.00,WeatherDisplay:10.37,2013-06-13 05:57:00,
2013-06-13 01:02:00,78.6,58.4,29.84,SSW,212,0.0,0.0,50,0.00,CLR,,0.00,WeatherDisplay:10.37,2013-06-13 06:02:00,
2013-06-13 01:07:00,78.4,58.3,29.84,WNW,289,0.0,2.3,50,0.00,CLR,,0.00,WeatherDisplay:10.37,2013-06-13 06:07:00,
2013-06-13 01:12:00,78.4,58.3,29.84,SW,226,0.0,0.0,50,0.00,CLR,,0.00,WeatherDisplay:10.37,2013-06-13 06:12:00,
2013-06-13 01:17:00,78.4,58.3,29.84,SW,224,0.0,0.0,50,0.00,CLR,,0.00,WeatherDisplay:10.37,2013-06-13 06:17:00,
2013-06-13 01:22:00,78.4,58.3,29.84,SSW,196,0.0,0.0,50,0.00,CLR,,0.00,WeatherDisplay:10.37,2013-06-13 06:22:00,
2013-06-13 01:27:00,78.3,58.6,29.84,SSW,200,0.0,3.5,51,0.00,CLR,,0.00,WeatherDisplay:10.37,2013-06-13 06:27:00,
2013-06-13 01:32:00,78.3,58.6,29.84,West,267,0.0,0.0,51,0.00,CLR,,0.00,WeatherDisplay:10.37,2013-06-13 06:32:00,
2013-06-13 01:37:00,78.3,58.6,29.84,West,266,0.0,0.0,51,0.00,CLR,,0.00,WeatherDisplay:10.37,2013-06-13 06:37:00,
2013-06-13 01:42:00,78.1,58.5,29.84,South,173,0.0,0.0,51,0.00,CLR,,0.00,WeatherDisplay:10.37,2013-06-13 06:42:00,
2013-06-13 01:47:00,78.1,59.0,29.84,South,180,0.0,0.0,52,0.00,CLR,,0.00,WeatherDisplay:10.37,2013-06-13 06:47:00,
2013-06-13 01:52:00,78.1,59.0,29.84,SW,222,0.0,0.0,52,0.00,CLR,,0.00,WeatherDisplay:10.37,2013-06-13 06:52:00,
2013-06-13 01:57:00,78.1,59.0,29.84,SW,221,0.0,0.0,52,0.00,CLR,,0.00,WeatherDisplay:10.37,2013-06-13 06:57:00,
2013-06-13 02:02:00,77.9,58.9,29.84,SW,222,0.0,0.0,52,0.00,CLR,,0.00,WeatherDisplay:10.37,2013-06-13 07:02:00,
2013-06-13 02:07:00,77.9,59.4,29.84,SW,222,0.0,0.0,53,0.00,CLR,,0.00,WeatherDisplay:10.37,2013-06-13 07:07:00,
2013-06-13 02:12:00,77.9,59.4,29.84,SW,222,0.0,0.0,53,0.00,CLR,,0.00,WeatherDisplay:10.37,2013-06-13 07:12:00,
2013-06-13 02:17:00,77.9,59.4,29.84,SSW,205,0.0,0.0,53,0.00,CLR,,0.00,WeatherDisplay:10.37,2013-06-13 07:17:00,
2013-06-13 02:22:00,77.7,59.2,29.84,SSW,205,0.0,0.0,53,0.00,CLR,,0.00,WeatherDisplay:10.37,2013-06-13 07:22:00,
2013-06-13 02:27:00,77.7,59.7,29.84,SSW,205,0.0,0.0,54,0.00,CLR,,0.00,WeatherDisplay:10.37,2013-06-13 07:27:00,
2013-06-13 02:32:00,77.7,59.7,29.84,SSW,205,0.0,0.0,54,0.00,CLR,,0.00,WeatherDisplay:10.37,2013-06-13 07:32:00,
2013-06-13 02:37:00,77.7,59.7,29.84,SSW,206,0.0,0.0,54,0.00,CLR,,0.00,WeatherDisplay:10.37,2013-06-13 07:37:00,
2013-06-13 02:42:00,77.5,59.6,29.84,WSW,254,0.0,0.0,54,0.00,CLR,,0.00,WeatherDisplay:10.37,2013-06-13 07:42:00,
2013-06-13 02:47:00,77.5,60.1,29.84,WSW,244,0.0,0.0,55,0.00,CLR,,0.00,WeatherDisplay:10.37,2013-06-13 07:47:00,
2013-06-13 02:52:00,77.5,60.1,29.84,WSW,238,0.0,0.0,55,0.00,CLR,,0.00,WeatherDisplay:10.37,2013-06-13 07:52:00,
2013-06-13 02:57:00,77.5,60.6,29.84,NNE,12,0.0,3.1,56,0.00,CLR,,0.00,WeatherDisplay:10.37,2013-06-13 07:57:00,
2013-06-13 03:02:00,77.5,60.6,29.84,WNW,299,0.0,0.0,56,0.00,CLR,,0.00,WeatherDisplay:10.37,2013-06-13 08:02:00,
2013-06-13 03:07:00,77.5,60.6,29.84,WSW,256,0.0,0.0,56,0.00,CLR,,0.00,WeatherDisplay:10.37,2013-06-13 08:07:00,
2013-06-13 03:12:00,77.5,60.6,29.84,SSW,209,0.0,2.3,56,0.00,CLR,,0.00,WeatherDisplay:10.37,2013-06-13 08:12:00,
2013-06-13 03:17:00,77.4,60.4,29.84,SW,231,0.0,0.0,56,0.00,CLR,,0.00,WeatherDisplay:10.37,2013-06-13 08:17:00,
2013-06-13 03:22:00,77.4,60.4,29.84,SW,231,0.0,0.0,56,0.00,CLR,,0.00,WeatherDisplay:10.37,2013-06-13 08:22:00,
2013-06-13 03:27:00,77.4,60.4,29.84,SW,231,0.0,0.0,56,0.00,CLR,,0.00,WeatherDisplay:10.37,2013-06-13 08:27:00,
2013-06-13 03:32:00,77.4,60.4,29.84,SW,231,0.0,0.0,56,0.00,CLR,,0.00,WeatherDisplay:10.37,2013-06-13 08:32:00,
2013-06-13 03:37:00,77.4,60.4,29.84,SW,226,0.0,0.0,56,0.00,CLR,,0.00,WeatherDisplay:10.37,2013-06-13 08:37:00,
2013-06-13 03:42:00,77.2,60.3,29.84,SW,223,0.0,0.0,56,0.00,CLR,,0.00,WeatherDisplay:10.37,2013-06-13 08:42:00,
2013-06-13 03:47:00,77.2,60.8,29.84,SW,223,0.0,0.0,57,0.00,CLR,,0.00,WeatherDisplay:10.37,2013-06-13 08:47:00,
2013-06-13 03:52:00,77.0,60.6,29.84,SW,223,0.0,0.0,57,0.00,CLR,,0.00,WeatherDisplay:10.37,2013-06-13 08:52:00,
2013-06-13 03:57:00,76.8,60.4,29.84,SW,223,0.0,0.0,57,0.00,CLR,,0.00,WeatherDisplay:10.37,2013-06-13 08:57:00,
2013-06-13 04:02:00,76.8,60.4,29.84,West,266,0.0,0.0,57,0.00,CLR,,0.00,WeatherDisplay:10.37,2013-06-13 09:02:00,
2013-06-13 04:07:00,76.8,60.9,29.84,West,266,0.0,3.5,58,0.00,CLR,,0.00,WeatherDisplay:10.37,2013-06-13 09:07:00,
2013-06-13 04:12:00,76.8,60.9,29.84,SSE,164,0.0,0.0,58,0.00,CLR,,0.00,WeatherDisplay:10.37,2013-06-13 09:12:00,
2013-06-13 04:17:00,76.8,60.9,29.84,SSE,168,0.0,0.0,58,0.00,CLR,,0.00,WeatherDisplay:10.37,2013-06-13 09:17:00,
2013-06-13 04:22:00,76.6,60.8,29.84,SSE,168,0.0,0.0,58,0.00,CLR,,0.00,WeatherDisplay:10.37,2013-06-13 09:22:00,
2013-06-13 04:27:00,76.5,60.6,29.84,SSE,168,0.0,0.0,58,0.00,CLR,,0.00,WeatherDisplay:10.37,2013-06-13 09:27:00,
2013-06-13 04:32:00,76.3,60.4,29.84,SSE,168,0.0,0.0,58,0.00,CLR,,0.00,WeatherDisplay:10.37,2013-06-13 09:32:00,
2013-06-13 04:37:00,76.3,60.4,29.84,SSE,168,0.0,0.0,58,0.00,CLR,,0.00,WeatherDisplay:10.37,2013-06-13 09:37:00,
2013-06-13 04:42:00,76.1,60.7,29.84,SSE,168,0.0,0.0,59,0.00,CLR,,0.00,WeatherDisplay:10.37,2013-06-13 09:42:00,
2013-06-13 04:47:00,76.1,60.7,29.84,SSE,168,0.0,0.0,59,0.00,CLR,,0.00,WeatherDisplay:10.37,2013-06-13 09:47:00,
2013-06-13 04:52:00,76.1,60.7,29.84,WNW,293,0.0,2.3,59,0.00,CLR,,0.00,WeatherDisplay:10.37,2013-06-13 09:52:00,
2013-06-13 04:57:00,75.9,60.6,29.84,WNW,292,0.0,0.0,59,0.00,CLR,,0.00,WeatherDisplay:10.37,2013-06-13 09:57:00,
2013-06-13 05:02:00,75.7,60.9,29.84,WNW,292,0.0,0.0,60,0.00,CLR,,0.00,WeatherDisplay:10.37,2013-06-13 10:02:00,
2013-06-13 05:07:00,75.9,61.0,29.84,WNW,292,0.0,0.0,60,0.00,CLR,,0.00,WeatherDisplay:10.37,2013-06-13 10:07:00,
2013-06-13 05:12:00,75.9,61.0,29.84,WNW,292,0.0,0.0,60,0.00,CLR,,0.00,WeatherDisplay:10.37,2013-06-13 10:12:00,
2013-06-13 05:17:00,76.1,61.2,29.84,WNW,292,0.0,0.0,60,0.00,CLR,,0.00,WeatherDisplay:10.37,2013-06-13 10:17:00,
2013-06-13 05:22:00,76.1,61.2,29.84,WNW,292,0.0,0.0,60,0.00,CLR,,0.00,WeatherDisplay:10.37,2013-06-13 10:22:00,
2013-06-13 05:27:00,76.1,61.2,29.84,WNW,292,0.0,0.0,60,0.00,CLR,,0.00,WeatherDisplay:10.37,2013-06-13 10:27:00,
2013-06-13 05:32:00,76.1,61.2,29.84,WNW,293,0.0,0.0,60,0.00,CLR,,0.00,WeatherDisplay:10.37,2013-06-13 10:32:00,
2013-06-13 05:37:00,75.9,61.5,29.87,WNW,292,0.0,0.0,61,0.00,CLR,,0.00,WeatherDisplay:10.37,2013-06-13 10:37:00,
2013-06-13 05:42:00,75.9,61.5,29.87,WNW,293,0.0,0.0,61,0.00,CLR,,0.00,WeatherDisplay:10.37,2013-06-13 10:42:00,
2013-06-13 05:47:00,75.9,61.5,29.87,WNW,292,0.0,0.0,61,0.00,CLR,,0.00,WeatherDisplay:10.37,2013-06-13 10:47:00,
2013-06-13 05:52:00,75.7,61.3,29.87,WNW,292,0.0,0.0,61,0.00,CLR,,0.00,WeatherDisplay:10.37,2013-06-13 10:52:00,
2013-06-13 05:57:00,75.7,61.3,29.87,WNW,292,0.0,0.0,61,0.00,CLR,,0.00,WeatherDisplay:10.37,2013-06-13 10:57:00,
2013-06-13 06:02:00,75.7,61.3,29.87,WNW,292,0.0,0.0,61,0.00,CLR,,0.00,WeatherDisplay:10.37,2013-06-13 11:02:00,
2013-06-13 06:07:00,75.7,61.3,29.87,WNW,292,0.0,0.0,61,0.00,CLR,,0.00,WeatherDisplay:10.37,2013-06-13 11:07:00,
2013-06-13 06:12:00,75.7,61.3,29.87,WNW,292,0.0,0.0,61,0.00,CLR,,0.00,WeatherDisplay:10.37,2013-06-13 11:12:00,
2013-06-13 06:17:00,75.7,61.3,29.87,WNW,292,0.0,0.0,61,0.00,CLR,,0.00,WeatherDisplay:10.37,2013-06-13 11:17:00,
2013-06-13 06:22:00,75.9,61.5,29.87,WNW,293,0.0,0.0,61,0.00,CLR,,0.00,WeatherDisplay:10.37,2013-06-13 11:22:00,
2013-06-13 06:27:00,75.9,61.5,29.87,WNW,286,0.0,0.0,61,0.00,CLR,,0.00,WeatherDisplay:10.37,2013-06-13 11:27:00,
2013-06-13 06:32:00,76.1,61.7,29.87,WNW,283,0.0,0.0,61,0.00,CLR,,0.00,WeatherDisplay:10.37,2013-06-13 11:32:00,
2013-06-13 06:37:00,76.3,62.3,29.87,West,263,3.6,6.9,62,0.00,CLR,,0.00,WeatherDisplay:10.37,2013-06-13 11:37:00,
2013-06-13 06:42:00,76.6,62.2,29.87,West,278,2.2,3.5,61,0.00,CLR,,0.00,WeatherDisplay:10.37,2013-06-13 11:42:00,
2013-06-13 06:47:00,76.8,62.3,29.87,WSW,251,2.7,5.8,61,0.00,CLR,,0.00,WeatherDisplay:10.37,2013-06-13 11:47:00,
2013-06-13 06:52:00,76.8,62.3,29.87,West,266,0.0,2.7,61,0.00,CLR,,0.00,WeatherDisplay:10.37,2013-06-13 11:52:00,
2013-06-13 06:57:00,77.0,62.5,29.87,West,278,2.7,5.8,61,0.00,CLR,,0.00,WeatherDisplay:10.37,2013-06-13 11:57:00,
2013-06-13 07:02:00,77.0,62.0,29.87,WNW,297,0.0,2.3,60,0.00,CLR,,0.00,WeatherDisplay:10.37,2013-06-13 12:02:00,
2013-06-13 07:07:00,77.2,62.2,29.87,WNW,293,3.1,3.5,60,0.00,CLR,,0.00,WeatherDisplay:10.37,2013-06-13 12:07:00,
2013-06-13 07:12:00,77.2,62.2,29.87,West,278,0.0,0.0,60,0.00,CLR,,0.00,WeatherDisplay:10.37,2013-06-13 12:12:00,
2013-06-13 07:17:00,77.4,62.4,29.87,West,277,0.0,0.0,60,0.00,CLR,,0.00,WeatherDisplay:10.37,2013-06-13 12:17:00,
2013-06-13 07:22:00,77.4,62.4,29.87,West,261,2.7,3.5,60,0.00,CLR,,0.00,WeatherDisplay:10.37,2013-06-13 12:22:00,
2013-06-13 07:27:00,77.5,62.6,29.87,WSW,255,0.0,0.0,60,0.00,CLR,,0.00,WeatherDisplay:10.37,2013-06-13 12:27:00,
2013-06-13 07:32:00,77.7,62.7,29.87,WNW,287,2.7,3.5,60,0.00,CLR,,0.00,WeatherDisplay:10.37,2013-06-13 12:32:00,
2013-06-13 07:37:00,77.7,62.7,29.87,WSW,255,0.0,0.0,60,0.00,CLR,,0.00,WeatherDisplay:10.37,2013-06-13 12:37:00,
2013-06-13 07:42:00,77.9,62.9,29.87,WSW,257,3.1,3.5,60,0.00,CLR,,0.00,WeatherDisplay:10.37,2013-06-13 12:42:00,
2013-06-13 07:47:00,78.1,62.6,29.87,NW,320,2.2,3.5,59,0.00,CLR,,0.00,WeatherDisplay:10.37,2013-06-13 12:47:00,
2013-06-13 07:52:00,78.3,62.8,29.87,NW,312,0.0,4.0,59,0.00,CLR,,0.00,WeatherDisplay:10.37,2013-06-13 12:52:00,
2013-06-13 07:57:00,78.4,62.9,29.87,NW,317,3.1,3.5,59,0.00,CLR,,0.00,WeatherDisplay:10.37,2013-06-13 12:57:00,
2013-06-13 08:02:00,78.6,63.1,29.87,WSW,246,0.0,0.0,59,0.00,CLR,,0.00,WeatherDisplay:10.37,2013-06-13 13:02:00,
2013-06-13 08:07:00,78.8,62.8,29.87,WNW,283,3.1,3.5,58,0.00,CLR,,0.00,WeatherDisplay:10.37,2013-06-13 13:07:00,
2013-06-13 08:12:00,79.0,62.9,29.87,WNW,287,2.2,3.5,58,0.00,CLR,,0.00,WeatherDisplay:10.37,2013-06-13 13:12:00,
2013-06-13 08:17:00,79.2,63.1,29.87,West,261,0.0,3.5,58,0.00,CLR,,0.00,WeatherDisplay:10.37,2013-06-13 13:17:00,
2013-06-13 08:22:00,79.3,63.3,29.87,SW,236,3.1,3.5,58,0.00,CLR,,0.00,WeatherDisplay:10.37,2013-06-13 13:22:00,
2013-06-13 08:27:00,79.5,62.9,29.87,NW,316,0.0,3.5,57,0.00,CLR,,0.00,WeatherDisplay:10.37,2013-06-13 13:27:00,
2013-06-13 08:32:00,79.5,62.9,29.87,NW,320,2.2,3.5,57,0.00,CLR,,0.00,WeatherDisplay:10.37,2013-06-13 13:32:00,
2013-06-13 08:37:00,79.5,62.4,29.87,SSW,212,3.6,6.9,56,0.00,CLR,,0.00,WeatherDisplay:10.37,2013-06-13 13:37:00,
2013-06-13 08:42:00,79.5,62.4,29.87,NNW,333,3.1,3.5,56,0.00,CLR,,0.00,WeatherDisplay:10.37,2013-06-13 13:42:00,
2013-06-13 08:47:00,79.5,62.4,29.87,NNE,13,3.1,3.5,56,0.00,CLR,,0.00,WeatherDisplay:10.37,2013-06-13 13:47:00,
2013-06-13 08:52:00,79.7,62.6,29.87,NW,320,2.7,3.5,56,0.00,CLR,,0.00,WeatherDisplay:10.37,2013-06-13 13:52:00,
2013-06-13 08:57:00,79.7,62.6,29.87,NW,319,2.7,3.6,56,0.00,CLR,,0.00,WeatherDisplay:10.37,2013-06-13 13:57:00,
2013-06-13 09:02:00,79.9,62.3,29.87,West,261,3.6,4.6,55,0.00,CLR,,0.00,WeatherDisplay:10.37,2013-06-13 14:02:00,
2013-06-13 09:07:00,79.9,61.7,29.87,NNE,25,2.7,3.5,54,0.00,CLR,,0.00,WeatherDisplay:10.37,2013-06-13 14:07:00,
2013-06-13 09:12:00,80.1,61.4,29.90,North,357,0.0,3.5,53,0.00,CLR,,0.00,WeatherDisplay:10.37,2013-06-13 14:12:00,
2013-06-13 09:17:00,80.2,61.0,29.90,North,353,2.7,3.5,52,0.00,CLR,,0.00,WeatherDisplay:10.37,2013-06-13 14:17:00,
2013-06-13 09:22:00,80.1,59.2,29.90,North,9,2.7,5.8,49,0.00,CLR,,0.00,WeatherDisplay:10.37,2013-06-13 14:22:00,
2013-06-13 09:27:00,80.1,58.6,29.90,North,350,3.1,3.5,48,0.00,CLR,,0.00,WeatherDisplay:10.37,2013-06-13 14:27:00,
2013-06-13 09:32:00,79.9,58.4,29.90,NNW,330,2.2,2.3,48,0.00,CLR,,0.00,WeatherDisplay:10.37,2013-06-13 14:32:00,
2013-06-13 09:37:00,79.9,58.4,29.90,NNW,335,2.2,3.5,48,0.00,CLR,,0.00,WeatherDisplay:10.37,2013-06-13 14:37:00,
2013-06-13 09:42:00,80.1,58.6,29.90,NW,318,0.0,2.7,48,0.00,CLR,,0.00,WeatherDisplay:10.37,2013-06-13 14:42:00,
2013-06-13 09:47:00,80.2,58.2,29.90,North,1,2.7,3.5,47,0.00,CLR,,0.00,WeatherDisplay:10.37,2013-06-13 14:47:00,
2013-06-13 09:52:00,80.4,58.3,29.90,North,349,0.0,3.5,47,0.00,CLR,,0.00,WeatherDisplay:10.37,2013-06-13 14:52:00,
2013-06-13 09:57:00,80.4,58.3,29.90,North,0,2.2,2.3,47,0.00,CLR,,0.00,WeatherDisplay:10.37,2013-06-13 14:57:00,
2013-06-13 10:02:00,80.4,58.3,29.90,North,349,2.7,4.6,47,0.00,CLR,,0.00,WeatherDisplay:10.37,2013-06-13 15:02:00,
2013-06-13 10:07:00,80.4,58.3,29.90,WSW,244,0.0,0.0,47,0.00,CLR,,0.00,WeatherDisplay:10.37,2013-06-13 15:07:00,
2013-06-13 10:12:00,80.6,57.9,29.90,NNW,336,3.6,4.6,46,0.00,CLR,,0.00,WeatherDisplay:10.37,2013-06-13 15:12:00,
2013-06-13 10:17:00,80.8,58.1,29.90,West,276,0.0,3.5,46,0.00,CLR,,0.00,WeatherDisplay:10.37,2013-06-13 15:17:00,
2013-06-13 10:22:00,81.5,58.7,29.90,North,357,2.7,3.5,46,0.00,CLR,,0.00,WeatherDisplay:10.37,2013-06-13 15:22:00,
2013-06-13 10:27:00,81.5,58.1,29.90,North,357,2.2,3.5,45,0.00,CLR,,0.00,WeatherDisplay:10.37,2013-06-13 15:27:00,
2013-06-13 10:32:00,81.1,57.8,29.90,NW,307,2.7,3.5,45,0.00,CLR,,0.00,WeatherDisplay:10.37,2013-06-13 15:32:00,
2013-06-13 10:37:00,81.1,57.8,29.90,NW,319,2.7,4.6,45,0.00,CLR,,0.00,WeatherDisplay:10.37,2013-06-13 15:37:00,
2013-06-13 10:42:00,81.1,57.8,29.90,North,1,2.7,3.5,45,0.00,CLR,,0.00,WeatherDisplay:10.37,2013-06-13 15:42:00,
2013-06-13 10:47:00,81.1,57.8,29.90,NNW,343,0.0,0.0,45,0.00,CLR,,0.00,WeatherDisplay:10.37,2013-06-13 15:47:00,
2013-06-13 10:52:00,81.3,57.9,29.90,WNW,302,0.0,3.5,45,0.00,CLR,,0.00,WeatherDisplay:10.37,2013-06-13 15:52:00,
2013-06-13 10:57:00,81.5,58.1,29.90,NNW,332,0.0,2.3,45,0.00,CLR,,0.00,WeatherDisplay:10.37,2013-06-13 15:57:00,
2013-06-13 11:02:00,81.7,58.3,29.90,NNW,334,2.2,3.5,45,0.00,CLR,,0.00,WeatherDisplay:10.37,2013-06-13 16:02:00,
2013-06-13 11:07:00,81.9,58.4,29.90,North,2,3.1,3.5,45,0.00,CLR,,0.00,WeatherDisplay:10.37,2013-06-13 16:07:00,
2013-06-13 11:12:00,81.9,58.4,29.90,NNW,346,2.7,3.5,45,0.00,CLR,,0.00,WeatherDisplay:10.37,2013-06-13 16:12:00,
2013-06-13 11:17:00,82.0,58.6,29.90,North,9,0.0,2.3,45,0.00,CLR,,0.00,WeatherDisplay:10.37,2013-06-13 16:17:00,
2013-06-13 11:22:00,82.2,58.8,29.93,NW,313,2.7,4.6,45,0.00,CLR,,0.00,WeatherDisplay:10.37,2013-06-13 16:22:00,
2013-06-13 11:27:00,82.4,58.9,29.93,NW,315,0.0,3.5,45,0.00,CLR,,0.00,WeatherDisplay:10.37,2013-06-13 16:27:00,
2013-06-13 11:32:00,82.6,59.1,29.93,West,271,3.1,3.5,45,0.00,CLR,,0.00,WeatherDisplay:10.37,2013-06-13 16:32:00,
2013-06-13 11:37:00,82.8,59.3,29.93,NW,318,0.0,0.0,45,0.00,CLR,,0.00,WeatherDisplay:10.37,2013-06-13 16:37:00,
2013-06-13 11:42:00,82.8,59.3,29.93,North,1,2.2,3.5,45,0.00,CLR,,0.00,WeatherDisplay:10.37,2013-06-13 16:42:00,
2013-06-13 11:47:00,82.9,59.4,29.93,NNW,330,0.0,2.3,45,0.00,CLR,,0.00,WeatherDisplay:10.37,2013-06-13 16:47:00,
2013-06-13 11:52:00,83.1,59.6,29.93,NNW,329,3.1,5.8,45,0.00,CLR,,0.00,WeatherDisplay:10.37,2013-06-13 16:52:00,
2013-06-13 11:57:00,83.3,59.7,29.93,NNW,341,2.7,3.5,45,0.00,CLR,,0.00,WeatherDisplay:10.37,2013-06-13 16:57:00,
2013-06-13 12:02:00,83.3,59.7,29.93,NNW,334,2.2,2.3,45,0.00,CLR,,0.00,WeatherDisplay:10.37,2013-06-13 17:02:00,
2013-06-13 12:07:00,83.3,59.7,29.93,North,0,2.7,3.5,45,0.00,CLR,,0.00,WeatherDisplay:10.37,2013-06-13 17:07:00,
2013-06-13 12:12:00,83.5,59.9,29.93,NE,41,0.0,0.0,45,0.00,CLR,,0.00,WeatherDisplay:10.37,2013-06-13 17:12:00,
2013-06-13 12:17:00,83.7,60.1,29.93,North,357,0.0,3.5,45,0.00,CLR,,0.00,WeatherDisplay:10.37,2013-06-13 17:17:00,
2013-06-13 12:22:00,83.8,60.2,29.93,North,0,3.1,3.5,45,0.00,CLR,,0.00,WeatherDisplay:10.37,2013-06-13 17:22:00,
2013-06-13 12:27:00,83.7,58.1,29.93,North,357,2.2,3.5,42,0.00,CLR,,0.00,WeatherDisplay:10.37,2013-06-13 17:27:00,
2013-06-13 12:32:00,83.7,58.1,29.93,North,0,3.1,5.8,42,0.00,CLR,,0.00,WeatherDisplay:10.37,2013-06-13 17:32:00,
2013-06-13 12:37:00,83.7,58.1,29.93,NW,317,2.7,3.5,42,0.00,CLR,,0.00,WeatherDisplay:10.37,2013-06-13 17:37:00,
2013-06-13 12:42:00,83.8,58.3,29.93,NNE,19,2.7,3.5,42,0.00,CLR,,0.00,WeatherDisplay:10.37,2013-06-13 17:42:00,
2013-06-13 12:47:00,84.0,58.5,29.93,North,353,2.7,3.5,42,0.00,CLR,,0.00,WeatherDisplay:10.37,2013-06-13 17:47:00,
2013-06-13 12:52:00,84.0,58.5,29.93,NW,324,3.1,3.5,42,0.00,CLR,,0.00,WeatherDisplay:10.37,2013-06-13 17:52:00,
2013-06-13 12:57:00,84.2,58.6,29.93,West,277,2.2,3.5,42,0.00,CLR,,0.00,WeatherDisplay:10.37,2013-06-13 17:57:00,
2013-06-13 13:02:00,84.0,58.5,29.93,NE,36,2.7,3.5,42,0.00,CLR,,0.00,WeatherDisplay:10.37,2013-06-13 18:02:00,
2013-06-13 13:07:00,84.0,58.5,29.93,NNE,16,2.2,4.6,42,0.00,CLR,,0.00,WeatherDisplay:10.37,2013-06-13 18:07:00,
2013-06-13 13:12:00,84.2,58.6,29.93,West,265,2.7,3.5,42,0.00,CLR,,0.00,WeatherDisplay:10.37,2013-06-13 18:12:00,
2013-06-13 13:17:00,84.2,58.6,29.93,North,353,0.0,3.5,42,0.00,CLR,,0.00,WeatherDisplay:10.37,2013-06-13 18:17:00,
2013-06-13 13:22:00,84.2,58.6,29.93,ENE,58,3.1,5.8,42,0.00,CLR,,0.00,WeatherDisplay:10.37,2013-06-13 18:22:00,
2013-06-13 13:27:00,84.2,58.6,29.93,NNW,344,0.0,4.6,42,0.00,CLR,,0.00,WeatherDisplay:10.37,2013-06-13 18:27:00,
2013-06-13 13:32:00,84.2,58.6,29.93,North,10,3.1,3.5,42,0.00,CLR,,0.00,WeatherDisplay:10.37,2013-06-13 18:32:00,
2013-06-13 13:37:00,84.2,58.6,29.93,NE,34,2.7,3.5,42,0.00,CLR,,0.00,WeatherDisplay:10.37,2013-06-13 18:37:00,
2013-06-13 13:42:00,84.4,58.8,29.93,North,1,3.1,4.6,42,0.00,CLR,,0.00,WeatherDisplay:10.37,2013-06-13 18:42:00,
2013-06-13 13:47:00,84.4,58.8,29.93,NE,37,2.7,3.5,42,0.00,CLR,,0.00,WeatherDisplay:10.37,2013-06-13 18:47:00,
2013-06-13 13:52:00,84.6,58.9,29.90,North,6,3.6,3.6,42,0.00,CLR,,0.00,WeatherDisplay:10.37,2013-06-13 18:52:00,
2013-06-13 13:57:00,84.7,59.1,29.90,NE,34,2.7,3.6,42,0.00,CLR,,0.00,WeatherDisplay:10.37,2013-06-13 18:57:00,
2013-06-13 14:02:00,84.7,59.1,29.90,NE,37,3.1,4.6,42,0.00,CLR,,0.00,WeatherDisplay:10.37,2013-06-13 19:02:00,
2013-06-13 14:07:00,84.9,59.3,29.90,NE,39,2.7,4.6,42,0.00,CLR,,0.00,WeatherDisplay:10.37,2013-06-13 19:07:00,
2013-06-13 14:12:00,85.1,59.4,29.90,NW,326,0.0,3.5,42,0.00,CLR,,0.00,WeatherDisplay:10.37,2013-06-13 19:12:00,
2013-06-13 14:17:00,85.3,59.6,29.90,West,276,2.7,4.6,42,0.00,CLR,,0.00,WeatherDisplay:10.37,2013-06-13 19:17:00,
2013-06-13 14:22:00,85.5,59.8,29.90,North,0,3.1,3.5,42,0.00,CLR,,0.00,WeatherDisplay:10.37,2013-06-13 19:22:00,
2013-06-13 14:27:00,85.5,59.8,29.90,NNE,29,3.1,4.6,42,0.00,CLR,,0.00,WeatherDisplay:10.37,2013-06-13 19:27:00,
2013-06-13 14:32:00,85.6,59.9,29.90,NNE,21,2.7,3.5,42,0.00,CLR,,0.00,WeatherDisplay:10.37,2013-06-13 19:32:00,
2013-06-13 14:37:00,85.5,59.8,29.90,NE,34,2.2,3.5,42,0.00,CLR,,0.00,WeatherDisplay:10.37,2013-06-13 19:37:00,
2013-06-13 14:42:00,85.6,59.9,29.90,North,5,2.2,3.5,42,0.00,CLR,,0.00,WeatherDisplay:10.37,2013-06-13 19:42:00,
2013-06-13 14:47:00,85.8,60.1,29.90,NNE,20,2.2,2.3,42,0.00,CLR,,0.00,WeatherDisplay:10.37,2013-06-13 19:47:00,
2013-06-13 14:52:00,85.6,59.9,29.90,NNE,23,3.6,4.6,42,0.00,CLR,,0.00,WeatherDisplay:10.37,2013-06-13 19:52:00,
2013-06-13 14:57:00,85.8,60.1,29.90,North,5,2.7,5.8,42,0.00,CLR,,0.00,WeatherDisplay:10.37,2013-06-13 19:57:00,
2013-06-13 15:02:00,85.8,60.1,29.90,NNE,14,3.1,3.5,42,0.00,CLR,,0.00,WeatherDisplay:10.37,2013-06-13 20:02:00,
2013-06-13 15:07:00,86.0,60.2,29.90,NNW,345,3.1,3.5,42,0.00,CLR,,0.00,WeatherDisplay:10.37,2013-06-13 20:07:00,
2013-06-13 15:12:00,86.0,60.2,29.90,North,357,3.1,3.5,42,0.00,CLR,,0.00,WeatherDisplay:10.37,2013-06-13 20:12:00,
2013-06-13 15:17:00,85.8,58.0,29.90,North,7,2.2,3.5,39,0.00,CLR,,0.00,WeatherDisplay:10.37,2013-06-13 20:17:00,
2013-06-13 15:22:00,85.8,58.0,29.90,NE,37,2.7,3.5,39,0.00,CLR,,0.00,WeatherDisplay:10.37,2013-06-13 20:22:00,
2013-06-13 15:27:00,85.6,59.9,29.90,North,350,0.0,0.0,42,0.00,CLR,,0.00,WeatherDisplay:10.37,2013-06-13 20:27:00,
2013-06-13 15:32:00,86.0,60.2,29.90,NNW,348,0.0,0.0,42,0.00,CLR,,0.00,WeatherDisplay:10.37,2013-06-13 20:32:00,
2013-06-13 15:37:00,86.2,60.4,29.90,NNE,14,0.0,3.5,42,0.00,CLR,,0.00,WeatherDisplay:10.37,2013-06-13 20:37:00,
2013-06-13 15:42:00,85.8,58.0,29.90,NNE,31,0.0,3.5,39,0.00,CLR,,0.00,WeatherDisplay:10.37,2013-06-13 20:42:00,
2013-06-13 15:47:00,85.6,57.8,29.90,NNE,22,2.7,3.5,39,0.00,CLR,,0.00,WeatherDisplay:10.37,2013-06-13 20:47:00,
2013-06-13 15:52:00,85.5,57.7,29.90,North,6,0.0,3.5,39,0.00,CLR,,0.00,WeatherDisplay:10.37,2013-06-13 20:52:00,
2013-06-13 15:57:00,85.6,59.9,29.90,NNE,29,2.2,3.5,42,0.00,CLR,,0.00,WeatherDisplay:10.37,2013-06-13 20:57:00,
2013-06-13 16:02:00,85.5,57.7,29.90,North,0,3.1,3.6,39,0.00,CLR,,0.00,WeatherDisplay:10.37,2013-06-13 21:02:00,
2013-06-13 16:07:00,85.5,59.8,29.90,North,357,3.1,3.5,42,0.00,CLR,,0.00,WeatherDisplay:10.37,2013-06-13 21:07:00,
2013-06-13 16:12:00,85.6,57.8,29.90,NNE,21,3.6,3.6,39,0.00,CLR,,0.00,WeatherDisplay:10.37,2013-06-13 21:12:00,
2013-06-13 16:17:00,85.6,59.9,29.90,North,350,0.0,2.3,42,0.00,CLR,,0.00,WeatherDisplay:10.37,2013-06-13 21:17:00,
2013-06-13 16:22:00,85.5,59.8,29.90,NNW,342,0.0,3.5,42,0.00,CLR,,0.00,WeatherDisplay:10.37,2013-06-13 21:22:00,
2013-06-13 16:27:00,85.5,57.7,29.90,NNE,27,0.0,2.3,39,0.00,CLR,,0.00,WeatherDisplay:10.37,2013-06-13 21:27:00,
2013-06-13 16:32:00,85.5,57.7,29.90,North,353,3.1,3.5,39,0.00,CLR,,0.00,WeatherDisplay:10.37,2013-06-13 21:32:00,
2013-06-13 16:37:00,85.5,59.8,29.90,NE,48,0.0,2.3,42,0.00,CLR,,0.00,WeatherDisplay:10.37,2013-06-13 21:37:00,
2013-06-13 16:42:00,85.5,59.8,29.90,NNW,341,0.0,3.5,42,0.00,CLR,,0.00,WeatherDisplay:10.37,2013-06-13 21:42:00,
2013-06-13 16:47:00,85.3,57.5,29.90,NNE,16,0.0,2.7,39,0.00,CLR,,0.00,WeatherDisplay:10.37,2013-06-13 21:47:00,
2013-06-13 16:52:00,85.1,59.4,29.90,NE,38,0.0,3.6,42,0.00,CLR,,0.00,WeatherDisplay:10.37,2013-06-13 21:52:00,
2013-06-13 16:57:00,85.1,57.4,29.90,ENE,74,0.0,3.5,39,0.00,CLR,,0.00,WeatherDisplay:10.37,2013-06-13 21:57:00,
2013-06-13 17:02:00,84.9,57.2,29.90,NNE,32,2.2,3.5,39,0.00,CLR,,0.00,WeatherDisplay:10.37,2013-06-13 22:02:00,
2013-06-13 17:07:00,84.9,59.3,29.90,NNE,13,0.0,3.5,42,0.00,CLR,,0.00,WeatherDisplay:10.37,2013-06-13 22:07:00,
2013-06-13 17:12:00,84.9,57.2,29.90,North,357,0.0,2.3,39,0.00,CLR,,0.00,WeatherDisplay:10.37,2013-06-13 22:12:00,
2013-06-13 17:17:00,84.7,57.0,29.90,North,0,0.0,2.3,39,0.00,CLR,,0.00,WeatherDisplay:10.37,2013-06-13 22:17:00,
2013-06-13 17:22:00,84.7,59.1,29.90,North,7,0.0,0.0,42,0.00,CLR,,0.00,WeatherDisplay:10.37,2013-06-13 22:22:00,
2013-06-13 17:27:00,84.6,58.9,29.90,North,7,0.0,0.0,42,0.00,CLR,,0.00,WeatherDisplay:10.37,2013-06-13 22:27:00,
2013-06-13 17:32:00,84.6,58.9,29.90,North,0,0.0,0.0,42,0.00,CLR,,0.00,WeatherDisplay:10.37,2013-06-13 22:32:00,
2013-06-13 17:37:00,84.6,58.9,29.87,WSW,245,0.0,3.6,42,0.00,CLR,,0.00,WeatherDisplay:10.37,2013-06-13 22:37:00,
2013-06-13 17:42:00,84.4,58.8,29.87,NNE,17,0.0,2.3,42,0.00,CLR,,0.00,WeatherDisplay:10.37,2013-06-13 22:42:00,
2013-06-13 17:47:00,84.4,58.8,29.87,NNE,17,0.0,0.0,42,0.00,CLR,,0.00,WeatherDisplay:10.37,2013-06-13 22:47:00,
2013-06-13 17:52:00,84.4,58.8,29.87,NNE,17,0.0,0.0,42,0.00,CLR,,0.00,WeatherDisplay:10.37,2013-06-13 22:52:00,
2013-06-13 17:57:00,84.4,58.8,29.87,North,8,0.0,0.0,42,0.00,CLR,,0.00,WeatherDisplay:10.37,2013-06-13 22:57:00,
2013-06-13 18:02:00,84.2,58.6,29.87,ENE,58,2.2,2.3,42,0.00,CLR,,0.00,WeatherDisplay:10.37,2013-06-13 23:02:00,
2013-06-13 18:07:00,84.2,58.6,29.90,NE,46,0.0,0.0,42,0.00,CLR,,0.00,WeatherDisplay:10.37,2013-06-13 23:07:00,
2013-06-13 18:12:00,84.2,58.6,29.90,NNE,30,2.2,3.1,42,0.00,CLR,,0.00,WeatherDisplay:10.37,2013-06-13 23:12:00,
2013-06-13 18:17:00,84.0,58.5,29.90,NNE,29,0.0,0.0,42,0.00,CLR,,0.00,WeatherDisplay:10.37,2013-06-13 23:17:00,
2013-06-13 18:22:00,83.8,58.3,29.90,NE,48,0.0,0.0,42,0.00,CLR,,0.00,WeatherDisplay:10.37,2013-06-13 23:22:00,
2013-06-13 18:27:00,83.7,58.1,29.90,NNE,30,0.0,0.0,42,0.00,CLR,,0.00,WeatherDisplay:10.37,2013-06-13 23:27:00,
2013-06-13 18:32:00,83.5,58.0,29.90,NNE,30,0.0,0.0,42,0.00,CLR,,0.00,WeatherDisplay:10.37,2013-06-13 23:32:00,
2013-06-13 18:37:00,83.3,57.8,29.90,NE,38,0.0,0.0,42,0.00,CLR,,0.00,WeatherDisplay:10.37,2013-06-13 23:37:00,
2013-06-13 18:42:00,83.3,57.8,29.90,North,8,0.0,0.0,42,0.00,CLR,,0.00,WeatherDisplay:10.37,2013-06-13 23:42:00,
2013-06-13 18:47:00,83.3,57.8,29.90,NNE,27,0.0,2.3,42,0.00,CLR,,0.00,WeatherDisplay:10.37,2013-06-13 23:47:00,
2013-06-13 18:52:00,83.1,57.6,29.90,North,0,2.2,3.5,42,0.00,CLR,,0.00,WeatherDisplay:10.37,2013-06-13 23:52:00,
2013-06-13 18:57:00,83.1,57.6,29.90,North,357,0.0,0.0,42,0.00,CLR,,0.00,WeatherDisplay:10.37,2013-06-13 23:57:00,
2013-06-13 19:02:00,82.8,57.3,29.90,North,10,0.0,2.3,42,0.00,CLR,,0.00,WeatherDisplay:10.37,2013-06-14 00:02:00,
2013-06-13 19:07:00,82.4,57.0,29.90,North,357,0.0,3.5,42,0.00,CLR,,0.00,WeatherDisplay:10.37,2013-06-14 00:07:00,
2013-06-13 19:12:00,82.2,57.5,29.90,NNE,15,0.0,0.0,43,0.00,CLR,,0.00,WeatherDisplay:10.37,2013-06-14 00:12:00,
2013-06-13 19:17:00,81.9,57.2,29.90,NNE,32,0.0,0.0,43,0.00,CLR,,0.00,WeatherDisplay:10.37,2013-06-14 00:17:00,
2013-06-13 19:22:00,81.5,58.1,29.90,NNE,16,2.7,3.5,45,0.00,CLR,,0.00,WeatherDisplay:10.37,2013-06-14 00:22:00,
2013-06-13 19:27:00,81.3,56.7,29.90,North,9,2.2,3.5,43,0.00,CLR,,0.00,WeatherDisplay:10.37,2013-06-14 00:27:00,
2013-06-13 19:32:00,81.1,56.5,29.90,NNE,29,2.2,2.3,43,0.00,CLR,,0.00,WeatherDisplay:10.37,2013-06-14 00:32:00,
2013-06-13 19:37:00,81.0,56.4,29.90,NE,48,0.0,0.0,43,0.00,CLR,,0.00,WeatherDisplay:10.37,2013-06-14 00:37:00,
2013-06-13 19:42:00,80.8,57.5,29.90,NE,39,0.0,3.5,45,0.00,CLR,,0.00,WeatherDisplay:10.37,2013-06-14 00:42:00,
2013-06-13 19:47:00,80.4,57.7,29.90,NE,56,2.2,3.5,46,0.00,CLR,,0.00,WeatherDisplay:10.37,2013-06-14 00:47:00,
2013-06-13 19:52:00,80.2,57.6,29.90,NNE,12,2.2,3.5,46,0.00,CLR,,0.00,WeatherDisplay:10.37,2013-06-14 00:52:00,
2013-06-13 19:57:00,79.9,57.3,29.90,NNE,12,2.2,2.3,46,0.00,CLR,,0.00,WeatherDisplay:10.37,2013-06-14 00:57:00,
2013-06-13 20:02:00,79.7,57.1,29.90,NE,37,2.7,3.5,46,0.00,CLR,,0.00,WeatherDisplay:10.37,2013-06-14 01:02:00,
2013-06-13 20:07:00,79.3,56.8,29.90,NNE,14,2.2,2.3,46,0.00,CLR,,0.00,WeatherDisplay:10.37,2013-06-14 01:07:00,
2013-06-13 20:12:00,79.2,56.6,29.90,NNE,21,2.2,3.5,46,0.00,CLR,,0.00,WeatherDisplay:10.37,2013-06-14 01:12:00,
2013-06-13 20:17:00,78.8,56.3,29.90,North,8,2.7,3.5,46,0.00,CLR,,0.00,WeatherDisplay:10.37,2013-06-14 01:17:00,
2013-06-13 20:22:00,78.6,56.1,29.93,NNE,30,2.2,3.5,46,0.00,CLR,,0.00,WeatherDisplay:10.37,2013-06-14 01:22:00,
2013-06-13 20:27:00,78.4,55.9,29.93,North,0,2.2,2.3,46,0.00,CLR,,0.00,WeatherDisplay:10.37,2013-06-14 01:27:00,
2013-06-13 20:32:00,78.1,55.6,29.93,NNE,13,0.0,2.3,46,0.00,CLR,,0.00,WeatherDisplay:10.37,2013-06-14 01:32:00,
2013-06-13 20:37:00,77.9,55.5,29.93,NNE,19,0.0,2.3,46,0.00,CLR,,0.00,WeatherDisplay:10.37,2013-06-14 01:37:00,
2013-06-13 20:42:00,77.7,55.3,29.93,NNE,19,2.2,2.3,46,0.00,CLR,,0.00,WeatherDisplay:10.37,2013-06-14 01:42:00,
2013-06-13 20:47:00,77.5,55.1,29.93,NE,40,2.2,2.3,46,0.00,CLR,,0.00,WeatherDisplay:10.37,2013-06-14 01:47:00,
2013-06-13 20:52:00,77.4,55.0,29.93,NE,47,2.2,3.5,46,0.00,CLR,,0.00,WeatherDisplay:10.37,2013-06-14 01:52:00,
2013-06-13 20:57:00,77.2,54.8,29.93,NNE,29,0.0,3.5,46,0.00,CLR,,0.00,WeatherDisplay:10.37,2013-06-14 01:57:00,
2013-06-13 21:02:00,77.0,54.6,29.93,NE,38,0.0,0.0,46,0.00,CLR,,0.00,WeatherDisplay:10.37,2013-06-14 02:02:00,
2013-06-13 21:07:00,76.8,54.5,29.93,NE,36,0.0,0.0,46,0.00,CLR,,0.00,WeatherDisplay:10.37,2013-06-14 02:07:00,
2013-06-13 21:12:00,76.8,55.1,29.93,NE,34,0.0,0.0,47,0.00,CLR,,0.00,WeatherDisplay:10.37,2013-06-14 02:12:00,
2013-06-13 21:17:00,76.6,54.9,29.93,NE,34,0.0,0.0,47,0.00,CLR,,0.00,WeatherDisplay:10.37,2013-06-14 02:17:00,
2013-06-13 21:22:00,76.5,54.7,29.93,NE,34,0.0,0.0,47,0.00,CLR,,0.00,WeatherDisplay:10.37,2013-06-14 02:22:00,
2013-06-13 21:27:00,76.1,54.4,29.93,NE,34,0.0,0.0,47,0.00,CLR,,0.00,WeatherDisplay:10.37,2013-06-14 02:27:00,
2013-06-13 21:32:00,75.7,54.1,29.93,NE,34,0.0,0.0,47,0.00,CLR,,0.00,WeatherDisplay:10.37,2013-06-14 02:32:00,
2013-06-13 21:37:00,75.4,53.7,29.93,NE,34,0.0,0.0,47,0.00,CLR,,0.00,WeatherDisplay:10.37,2013-06-14 02:37:00,
2013-06-13 21:42:00,75.4,53.7,29.93,NE,34,0.0,0.0,47,0.00,CLR,,0.00,WeatherDisplay:10.37,2013-06-14 02:42:00,
2013-06-13 21:47:00,75.4,53.7,29.93,NNE,30,2.2,2.3,47,0.00,CLR,,0.00,WeatherDisplay:10.37,2013-06-14 02:47:00,
2013-06-13 21:52:00,75.2,53.6,29.93,NNE,29,0.0,0.0,47,0.00,CLR,,0.00,WeatherDisplay:10.37,2013-06-14 02:52:00,
2013-06-13 21:57:00,75.2,53.6,29.93,NNE,29,0.0,0.0,47,0.00,CLR,,0.00,WeatherDisplay:10.37,2013-06-14 02:57:00,
2013-06-13 22:02:00,75.2,53.6,29.93,NNE,29,0.0,0.0,47,0.00,CLR,,0.00,WeatherDisplay:10.37,2013-06-14 03:02:00,
2013-06-13 22:07:00,75.2,53.6,29.93,NNE,29,0.0,0.0,47,0.00,CLR,,0.00,WeatherDisplay:10.37,2013-06-14 03:07:00,
2013-06-13 22:12:00,75.0,54.0,29.93,NNE,29,0.0,0.0,48,0.00,CLR,,0.00,WeatherDisplay:10.37,2013-06-14 03:12:00,
2013-06-13 22:17:00,74.8,53.8,29.93,NNE,29,0.0,0.0,48,0.00,CLR,,0.00,WeatherDisplay:10.37,2013-06-14 03:17:00,
2013-06-13 22:22:00,74.8,53.8,29.93,NNE,29,0.0,0.0,48,0.00,CLR,,0.00,WeatherDisplay:10.37,2013-06-14 03:22:00,
2013-06-13 22:27:00,74.8,53.8,29.93,NNE,29,0.0,0.0,48,0.00,CLR,,0.00,WeatherDisplay:10.37,2013-06-14 03:27:00,
2013-06-13 22:32:00,74.8,53.8,29.93,NNE,29,0.0,0.0,48,0.00,CLR,,0.00,WeatherDisplay:10.37,2013-06-14 03:32:00,
2013-06-13 22:37:00,74.3,53.3,29.93,NNE,29,0.0,0.0,48,0.00,CLR,,0.00,WeatherDisplay:10.37,2013-06-14 03:37:00,
2013-06-13 22:42:00,73.8,52.8,29.93,NNE,29,0.0,0.0,48,0.00,CLR,,0.00,WeatherDisplay:10.37,2013-06-14 03:42:00,
2013-06-13 22:47:00,73.4,52.5,29.93,NNE,29,0.0,0.0,48,0.00,CLR,,0.00,WeatherDisplay:10.37,2013-06-14 03:47:00,
2013-06-13 22:52:00,73.8,53.4,29.93,NNE,29,0.0,0.0,49,0.00,CLR,,0.00,WeatherDisplay:10.37,2013-06-14 03:52:00,
2013-06-13 22:57:00,73.8,53.4,29.93,NNE,29,0.0,0.0,49,0.00,CLR,,0.00,WeatherDisplay:10.37,2013-06-14 03:57:00,
2013-06-13 23:01:00,73.8,53.4,29.93,NNE,29,0.0,0.0,49,0.00,CLR,,0.00,WeatherDisplay:10.37,2013-06-14 04:01:00,
2013-06-13 23:03:00,73.6,53.2,29.93,NNE,29,0.0,0.0,49,0.00,CLR,,0.00,WeatherDisplay:10.37,2013-06-14 04:03:00,
2013-06-13 23:05:00,73.6,53.2,29.93,NNE,29,0.0,0.0,49,0.00,CLR,,0.00,WeatherDisplay:10.37,2013-06-14 04:05:00,
2013-06-13 23:08:00,73.6,53.2,29.93,NNE,29,0.0,0.0,49,0.00,CLR,,0.00,WeatherDisplay:10.37,2013-06-14 04:08:00,
2013-06-13 23:13:00,73.6,53.2,29.93,NNE,29,0.0,0.0,49,0.00,CLR,,0.00,WeatherDisplay:10.37,2013-06-14 04:13:00,
2013-06-13 23:18:00,73.4,53.1,29.93,NNE,29,0.0,0.0,49,0.00,CLR,,0.00,WeatherDisplay:10.37,2013-06-14 04:18:00,
2013-06-13 23:23:00,73.4,53.1,29.93,NNE,29,0.0,0.0,49,0.00,CLR,,0.00,WeatherDisplay:10.37,2013-06-14 04:23:00,
2013-06-13 23:28:00,73.0,53.3,29.93,NNE,29,0.0,0.0,50,0.00,CLR,,0.00,WeatherDisplay:10.37,2013-06-14 04:28:00,
2013-06-13 23:33:00,72.9,53.1,29.93,NNE,29,0.0,0.0,50,0.00,CLR,,0.00,WeatherDisplay:10.37,2013-06-14 04:33:00,
2013-06-13 23:38:00,72.5,52.8,29.93,NNE,29,0.0,0.0,50,0.00,CLR,,0.00,WeatherDisplay:10.37,2013-06-14 04:38:00,
2013-06-13 23:43:00,72.3,53.2,29.93,NNE,29,0.0,0.0,51,0.00,CLR,,0.00,WeatherDisplay:10.37,2013-06-14 04:43:00,
2013-06-13 23:48:00,72.0,52.8,29.93,NNE,29,0.0,0.0,51,0.00,CLR,,0.00,WeatherDisplay:10.37,2013-06-14 04:48:00,
2013-06-13 23:53:00,71.8,53.2,29.93,NNE,29,0.0,0.0,52,0.00,CLR,,0.00,WeatherDisplay:10.37,2013-06-14 04:53:00,
2013-06-13 23:58:00,72.0,54.4,29.93,NNE,29,0.0,0.0,54,0.00,CLR,,0.00,WeatherDisplay:10.37,2013-06-14 04:58:00,